User: anonymous   Login
Location: Hradec Kralove
(50.2170°N, 15.8330°E)
Time: 16:14:11
(UTC+02:00)
Language:

Courier 1B Rocket - Orbit

View from above orbital plane
View from above orbital plane
View from above satellite
View from above satellite

Ground track
Ground track

The orbit data is extracted from the following two-line orbital elements,

1 00059U 60013B   24109.59545670  .00000206  00000-0  15308-3 0  9999
2 00059  28.2480 220.5070 0188886 166.9171 193.6360 13.53065709136148
Epoch (UTC): 18 April 2024 14:17:27
Eccentricity: 0.0188886
inclination: 28.2480°
perigee height: 920 km
apogee height: 1201 km
right ascension of ascending node: 220.5070°
argument of perigee: 166.9171°
revolutions per day: 13.53065709
mean anomaly at epoch: 193.6360°
orbit number at epoch: 13614

The dashed part of the orbit path shows where the satellite is in the earth's shadow,  

DLR